Location: Los Gatos B&B
(42.6926°N, 77.0646°W)
Time: 05:31:04
(UTC-04:00)

Amateur Radio Satellites - All Passes

Search period start: 29 April 2017 05:01
Search period end: 30 April 2017 05:01
Location: Los Gatos B&B, 42.6926°N, 77.0646°W

Satellite Date Start Highest point End Downlink Frequencies (MHz)
Time Altitude Azimuth
KKS-1 29 Apr 05:08:25 05:12:53 67° 258° (WSW) 05:17:21 437.445
MOZHAYETS 4 29 Apr 05:19:22 05:20:39 11° 272° (W) 05:21:55
STARS 29 Apr 05:32:39 05:37:05 84° 259° (WSW) 05:41:30 437.465
RS-15 29 Apr 05:33:39 05:41:15 20° 97° (E) 05:48:57 29.354- 29.394
SO-50 29 Apr 05:45:23 05:49:27 31° 115° (ESE) 05:53:27 436.795
AO-7 29 Apr 05:47:41 05:55:45 57° 296° (WNW) 06:03:50 .
ITAMSAT 1 29 Apr 06:03:14 06:06:50 19° 299° (WNW) 06:10:25 435.822/435.867
XW-2D 29 Apr 06:12:38 06:14:05 12° 90° (E) 06:15:32 145.860 - 145.880
CUBESAT XI-V 29 Apr 06:15:35 06:18:33 17° 269° (W) 06:21:32 437.345
STRAND 1 29 Apr 06:17:50 06:20:51 16° 60° (ENE) 06:23:52 437.568
DOVE 4 29 Apr 06:18:53 06:22:39 25° 93° (E) 06:26:13 437.250
XW-2B 29 Apr 06:19:09 06:21:10 14° 91° (E) 06:23:10 145.730 - 145.750
KAITUO 1B 29 Apr 06:22:41 06:24:09 12° 91° (E) 06:25:37 145.475/437.950
YUBILEINY 29 Apr 06:25:35 06:32:58 30° 293° (WNW) 06:40:26 435.215
XW-2C 29 Apr 06:30:32 06:33:19 19° 93° (E) 06:36:06 145.795 - 145.815
LilacSat-2 29 Apr 06:32:31 06:35:30 21° 94° (E) 06:38:28 437.200
XW-2F 29 Apr 06:53:25 06:56:55 33° 97° (E) 07:00:24 145.980 - 146.000
NUDT-PHONESAT 29 Apr 06:56:40 06:59:59 29° 97° (E) 07:03:17 437.300
Tancredo 1 29 Apr 07:04:28 07:06:45 19° 134° (SE) 07:09:03 437.200
M-CUBED/EXP-1 PRIME 29 Apr 07:15:56 07:20:30 60° 68° (ENE) 07:25:07 437.505
SO-50 29 Apr 07:25:38 07:29:50 34° 312° (NW) 07:34:01 436.795
CUTE-I 29 Apr 07:29:10 07:34:29 71° 102° (ESE) 07:39:46 437.470
RS-15 29 Apr 07:39:34 07:51:35 78° 119° (ESE) 08:03:58 29.354- 29.394
AO-7 29 Apr 07:42:53 07:46:46 14° 317° (NW) 07:50:41 .
XW-2D 29 Apr 07:44:51 07:48:34 50° 286° (WNW) 07:52:16 145.860 - 145.880
ISS 29 Apr 07:46:07 07:49:10 38° 139° (SE) 07:52:14 437.550
HO-68 29 Apr 07:50:52 07:57:09 31° 95° (E) 08:03:23 435.675
XW-2B 29 Apr 07:51:56 07:55:34 42° 287° (WNW) 07:59:11 145.730 - 145.750
STRAND 1 29 Apr 07:54:21 07:59:26 71° 257° (WSW) 08:04:33 437.568
KAITUO 1B 29 Apr 07:54:46 07:58:26 48° 287° (WNW) 08:02:05 145.475/437.950
DOVE 4 29 Apr 07:56:21 08:00:22 30° 292° (WNW) 08:04:10 437.250
XW-2A 29 Apr 07:56:44 07:59:24 22° 95° (E) 08:02:05 145.665 - 145.685
XW-2C 29 Apr 08:04:11 08:07:34 30° 289° (WNW) 08:10:56 145.795 - 145.815
LilacSat-2 29 Apr 08:06:27 08:09:46 28° 290° (WNW) 08:13:04 437.200
CUBEBUG 2 29 Apr 08:11:12 08:13:57 17° 92° (E) 08:16:43 437.445
CUTE 1.7 + AOD 2 29 Apr 08:11:56 08:15:58 38° 98° (E) 08:19:57 437.475
SEEDS 29 Apr 08:26:37 08:30:32 35° 97° (E) 08:34:27 437.485
XW-2F 29 Apr 08:28:12 08:30:48 18° 293° (WNW) 08:33:25 145.980 - 146.000
NUDT-PHONESAT 29 Apr 08:31:00 08:33:41 19° 293° (WNW) 08:36:23 437.300
Tancredo 1 29 Apr 08:39:23 08:42:25 50° 331° (NNW) 08:45:27 437.200
ZACube-1 29 Apr 08:41:52 08:43:51 13° 91° (E) 08:45:50 437.345
AO-73 29 Apr 08:46:56 08:49:02 13° 91° (E) 08:51:08 145.935
PRISM 29 Apr 08:47:41 08:49:51 14° 63° (ENE) 08:52:02 437.425
M-CUBED/EXP-1 PRIME 29 Apr 08:52:25 08:55:14 16° 264° (W) 08:58:05 437.505
Oscar 11 29 Apr 08:58:45 09:01:19 15° 91° (E) 09:03:52 .
CUTE-I 29 Apr 09:10:39 09:13:56 17° 300° (WNW) 09:17:14 437.470
ISS 29 Apr 09:22:42 09:25:42 33° 337° (NNW) 09:28:42 437.550
AAUSAT CUBESAT 2 29 Apr 09:25:48 09:30:01 80° 101° (E) 09:34:11 437.432
UWE-3 29 Apr 09:27:18 09:31:31 72° 102° (ESE) 09:35:48 435.000/436.395/437.385
XW-2A 29 Apr 09:29:32 09:32:03 20° 291° (WNW) 09:34:35 145.665 - 145.685
HO-68 29 Apr 09:38:10 09:45:07 53° 293° (WNW) 09:52:02 435.675
DELFI C3 29 Apr 09:45:44 09:47:41 13° 91° (E) 09:49:36 145.870
CUBEBUG 2 29 Apr 09:46:50 09:50:45 41° 288° (WNW) 09:54:45 437.445
CUTE 1.7 + AOD 2 29 Apr 09:48:22 09:51:32 20° 294° (WNW) 09:54:41 437.475
TIGRISAT 29 Apr 09:48:51 09:52:48 35° 70° (ENE) 09:56:42 435.000
RS-15 29 Apr 09:54:02 10:05:21 41° 325° (NW) 10:16:52 29.354- 29.394
SEEDS 29 Apr 10:02:47 10:06:00 21° 293° (WNW) 10:09:13 437.485
O/OREOS (USA 219) 29 Apr 10:06:30 10:10:58 53° 108° (ESE) 10:15:28 437.305
FO-29 29 Apr 10:06:42 10:12:38 53° 71° (ENE) 10:17:59 435.910
UNISAT 6 29 Apr 10:10:33 10:14:51 66° 75° (ENE) 10:19:08 437.425
ZACube-1 29 Apr 10:16:18 10:20:27 57° 286° (WNW) 10:24:41 437.345
Tancredo 1 29 Apr 10:16:39 10:18:50 17° 350° (N) 10:21:01 437.200
PRISM 29 Apr 10:20:34 10:24:40 56° 259° (W) 10:28:47 437.425
AO-73 29 Apr 10:21:25 10:25:34 55° 287° (WNW) 10:29:47 145.935
PCSat 29 Apr 10:31:56 10:36:57 36° 51° (NE) 10:41:55 145.827
Oscar 11 29 Apr 10:33:30 10:37:44 50° 287° (WNW) 10:41:56 .
EO-79 29 Apr 10:46:08 10:47:51 12° 62° (ENE) 10:49:34 145.935-145.965
ISS 29 Apr 11:00:39 11:02:54 17° 357° (N) 11:05:08 437.550
AAUSAT CUBESAT 2 29 Apr 11:04:14 11:04:49 10° 299° (WNW) 11:05:25 437.432
UWE-3 29 Apr 11:06:07 11:07:25 11° 298° (WNW) 11:08:44 435.000/436.395/437.385
OBJECT BX 29 Apr 11:16:27 11:20:06 66° 285° (WNW) 11:23:44 145.990 - 145.960
DELFI C3 29 Apr 11:18:51 11:22:44 49° 287° (WNW) 11:26:34 145.870
AIST 2D 29 Apr 11:22:45 11:26:06 48° 74° (ENE) 11:29:28 435.315
POLYITAN 1 29 Apr 11:24:01 11:27:41 30° 69° (ENE) 11:31:22 437.675
TIGRISAT 29 Apr 11:26:16 11:29:34 21° 266° (W) 11:32:51 435.000
AO-85 29 Apr 11:26:32 11:29:13 16° 112° (ESE) 11:31:49 145.980
HO-68 29 Apr 11:29:28 11:31:14 11° 314° (NW) 11:32:59 435.675
QB50P2 29 Apr 11:30:31 11:34:26 38° 71° (ENE) 11:38:21 145.880/145.840
BUGSAT 1 29 Apr 11:35:15 11:36:16 11° 61° (ENE) 11:37:18 437.445
O/OREOS (USA 219) 29 Apr 11:47:29 11:50:43 19° 307° (NW) 11:53:57 437.305
NANOSAT C BR1 29 Apr 11:49:14 11:53:18 52° 73° (ENE) 11:57:23 145.865
UNISAT 6 29 Apr 11:50:36 11:51:59 11° 270° (W) 11:53:22 437.425
FO-29 29 Apr 11:53:14 11:57:57 23° 266° (W) 12:02:19 435.910
Tancredo 1 29 Apr 11:53:21 11:55:34 18° 11° (N) 11:57:48 437.200
LO-87 29 Apr 12:10:27 12:14:01 72° 102° (ESE) 12:17:32 145.935 - 145.965
RS-15 29 Apr 12:12:49 12:22:32 25° 358° (N) 12:32:10 29.354- 29.394
PCSat 29 Apr 12:15:23 12:20:19 36° 249° (WSW) 12:25:13 145.827
DUCHIFAT 1 29 Apr 12:17:15 12:21:26 84° 256° (WSW) 12:25:39 145.980
EO-79 29 Apr 12:18:53 12:23:04 66° 259° (WSW) 12:27:16 145.935-145.965
ESTCUBE 1 29 Apr 12:23:55 12:28:22 51° 100° (E) 12:32:46 437.505/2401.250
VELOX 1 29 Apr 12:25:30 12:27:56 14° 91° (E) 12:30:21 145.980
Oscar 19 29 Apr 12:31:30 12:35:08 20° 62° (ENE) 12:38:48 437.125/150
ISS 29 Apr 12:37:30 12:40:13 24° 17° (NNE) 12:42:56 437.550
Gurwin Techsat 1B 29 Apr 12:56:56 13:00:46 21° 62° (ENE) 13:04:37 435.225
POLYITAN 1 29 Apr 13:00:05 13:03:28 23° 265° (W) 13:06:52 437.675
SPROUT 29 Apr 13:04:02 13:07:57 35° 97° (E) 13:11:50 437.525
AO-85 29 Apr 13:05:09 13:09:16 50° 307° (NW) 13:13:13 145.980
BUGSAT 1 29 Apr 13:06:56 13:11:04 73° 259° (WSW) 13:15:10 437.445
DX 1 29 Apr 13:07:22 13:09:54 15° 92° (E) 13:12:26 434.975-435.025
QB50P2 29 Apr 13:07:23 13:10:21 19° 267° (W) 13:13:20 145.880/145.840
AO-7 29 Apr 13:09:00 13:11:59 12° 41° (NE) 13:14:58 .
BEESAT 3 29 Apr 13:25:09 13:28:59 53° 119° (ESE) 13:32:53 437.485
NANOSAT C BR1 29 Apr 13:27:09 13:29:19 14° 269° (W) 13:31:29 145.865
Tancredo 1 29 Apr 13:28:55 13:31:59 54° 31° (NNE) 13:35:00 437.200
BEESAT 2 29 Apr 13:31:45 13:34:55 23° 113° (ESE) 13:38:09 435.950
50 SAT 29 Apr 13:57:39 14:01:09 84° 285° (WNW) 14:04:37 437.505
VELOX 1 29 Apr 14:00:23 14:04:43 54° 288° (WNW) 14:09:00 145.980
ESTCUBE 1 29 Apr 14:01:45 14:04:45 18° 297° (WNW) 14:07:45 437.505/2401.250
UKube-1 29 Apr 14:02:53 14:07:00 41° 99° (E) 14:11:04 .
ITAMSAT 1 29 Apr 14:05:16 14:07:49 14° 58° (ENE) 14:10:22 435.822/435.867
Oscar 19 29 Apr 14:08:56 14:14:00 57° 259° (W) 14:19:08 437.125/150
ISS 29 Apr 14:13:44 14:17:00 77° 214° (SW) 14:20:14 437.550
SO-50 29 Apr 14:15:29 14:19:39 35° 48° (NE) 14:23:48 436.795
RS-15 29 Apr 14:28:35 14:39:53 39° 33° (NNE) 14:50:46 29.354- 29.394
Gurwin Techsat 1B 29 Apr 14:35:04 14:40:17 57° 259° (W) 14:45:33 435.225
YUBILEINY 29 Apr 14:36:30 14:44:09 32° 68° (ENE) 14:51:46 435.215
SPROUT 29 Apr 14:40:26 14:43:38 21° 294° (WNW) 14:46:50 437.525
DX 1 29 Apr 14:42:10 14:46:23 50° 288° (WNW) 14:50:35 434.975-435.025
AO-7 29 Apr 14:54:55 15:02:47 50° 63° (ENE) 15:10:41 .
BEESAT 3 29 Apr 15:04:04 15:06:52 18° 318° (NW) 15:09:43 437.485
Tancredo 1 29 Apr 15:05:27 15:07:36 17° 226° (SW) 15:09:45 437.200
BEESAT 2 29 Apr 15:08:53 15:12:31 34° 311° (NW) 15:16:13 435.950
ITUPSAT 1 29 Apr 15:12:53 15:16:23 20° 93° (E) 15:19:51 437.325
MOZHAYETS 4 29 Apr 15:33:43 15:36:39 16° 91° (E) 15:39:34
UKube-1 29 Apr 15:39:39 15:42:43 19° 296° (WNW) 15:45:47 .
ITAMSAT 1 29 Apr 15:41:22 15:46:33 85° 256° (WSW) 15:51:47 435.822/435.867
SO-50 29 Apr 15:56:08 15:59:59 28° 246° (WSW) 16:03:51 436.795
BEESAT 29 Apr 16:06:52 16:11:38 70° 102° (ESE) 16:16:23 436.000
YUBILEINY 29 Apr 16:32:53 16:41:26 60° 269° (W) 16:49:59 435.215
CUBESAT XI-V 29 Apr 16:34:00 16:35:57 12° 89° (E) 16:37:54 437.345
RS-15 29 Apr 16:41:35 16:53:53 83° 240° (WSW) 17:05:33 29.354- 29.394
AO-7 29 Apr 16:48:08 16:55:42 39° 262° (W) 17:03:20 .
ITUPSAT 1 29 Apr 16:49:51 16:54:24 46° 290° (WNW) 16:58:58 437.325
KKS-1 29 Apr 16:59:13 17:02:36 21° 94° (E) 17:05:58 437.445
MOZHAYETS 4 29 Apr 17:09:36 17:14:06 52° 288° (WNW) 17:18:34
CUTE-I 29 Apr 17:14:09 17:17:37 18° 60° (ENE) 17:21:06 437.470
XW-2C 29 Apr 17:14:23 17:15:28 11° 63° (ENE) 17:16:33 145.795 - 145.815
LilacSat-2 29 Apr 17:16:30 17:18:08 12° 64° (ENE) 17:19:46 437.200
STARS 29 Apr 17:22:22 17:25:06 16° 92° (E) 17:27:47 437.465
DOVE 4 29 Apr 17:23:50 17:28:30 33° 69° (ENE) 17:33:04 437.250
XW-2F 29 Apr 17:35:41 17:38:19 19° 67° (ENE) 17:40:57 145.980 - 146.000
NUDT-PHONESAT 29 Apr 17:37:37 17:39:53 16° 66° (ENE) 17:42:09 437.300
BEESAT 29 Apr 17:46:16 17:48:50 15° 300° (WNW) 17:51:23 436.000
CUBESAT XI-V 29 Apr 18:09:06 18:13:49 71° 285° (WNW) 18:18:29 437.345
HO-68 29 Apr 18:21:01 18:26:43 27° 58° (ENE) 18:32:27 435.675
XW-2D 29 Apr 18:26:18 18:30:01 83° 76° (ENE) 18:33:48 145.860 - 145.880
NO-84 29 Apr 18:31:04 18:34:29 30° 132° (SE) 18:37:38 435.350 FM
XW-2B 29 Apr 18:33:20 18:37:04 84° 260° (W) 18:40:50 145.730 - 145.750
KAITUO 1B 29 Apr 18:34:59 18:38:40 81° 77° (ENE) 18:42:24 145.475/437.950
KKS-1 29 Apr 18:35:11 18:39:15 37° 291° (WNW) 18:43:19 437.445
O/OREOS (USA 219) 29 Apr 18:37:47 18:40:23 15° 51° (NE) 18:42:58 437.305
XW-2C 29 Apr 18:45:30 18:49:10 57° 260° (W) 18:52:53 145.795 - 145.815
LilacSat-2 29 Apr 18:48:19 18:51:58 50° 261° (W) 18:55:40 437.200
CUTE-I 29 Apr 18:51:48 18:57:07 68° 258° (WSW) 19:02:27 437.470
RS-15 29 Apr 18:56:14 19:04:22 22° 262° (W) 19:12:18 29.354- 29.394
STARS 29 Apr 18:57:29 19:01:41 47° 289° (WNW) 19:05:52 437.465
DOVE 4 29 Apr 19:01:21 19:06:06 33° 264° (W) 19:10:46 437.250
CUTE 1.7 + AOD 2 29 Apr 19:05:17 19:08:56 29° 69° (ENE) 19:12:37 437.475
XW-2F 29 Apr 19:08:56 19:12:15 30° 263° (W) 19:15:36 145.980 - 146.000
NUDT-PHONESAT 29 Apr 19:10:08 19:13:31 35° 263° (W) 19:16:55 437.300
CUBEBUG 2 29 Apr 19:10:27 19:13:08 17° 65° (ENE) 19:15:48 437.445
SEEDS 29 Apr 19:19:01 19:22:33 27° 68° (ENE) 19:26:07 437.485
ZACube-1 29 Apr 19:39:30 19:40:54 11° 62° (ENE) 19:42:17 437.345
AO-73 29 Apr 19:44:16 19:45:44 12° 62° (ENE) 19:47:11 145.935
Oscar 11 29 Apr 19:54:56 19:57:06 14° 62° (ENE) 19:59:16 .
AO-85 29 Apr 19:55:35 19:58:30 19° 44° (NE) 20:01:30 145.980
XW-2A 29 Apr 20:00:33 20:03:50 53° 260° (W) 20:07:08 145.665 - 145.685
STRAND 1 29 Apr 20:04:11 20:08:55 37° 97° (E) 20:13:37 437.568
HO-68 29 Apr 20:06:48 20:13:53 66° 257° (WSW) 20:21:03 435.675
NO-84 29 Apr 20:08:35 20:11:59 35° 327° (NNW) 20:15:08 435.350 FM
O/OREOS (USA 219) 29 Apr 20:15:45 20:20:20 71° 249° (WSW) 20:24:50 437.305
AAUSAT CUBESAT 2 29 Apr 20:16:10 20:20:12 55° 74° (ENE) 20:24:18 437.432
UWE-3 29 Apr 20:24:46 20:28:57 61° 74° (ENE) 20:33:04 435.000/436.395/437.385
M-CUBED/EXP-1 PRIME 29 Apr 20:29:02 20:32:47 34° 102° (ESE) 20:36:15 437.505
CUTE 1.7 + AOD 2 29 Apr 20:41:18 20:44:45 24° 266° (W) 20:48:15 437.475
CUBEBUG 2 29 Apr 20:45:16 20:49:25 46° 261° (W) 20:53:30 437.445
SEEDS 29 Apr 20:54:38 20:58:10 26° 265° (W) 21:01:44 437.485
ZACube-1 29 Apr 21:12:29 21:16:38 68° 259° (W) 21:20:46 437.345
AO-73 29 Apr 21:17:18 21:21:25 66° 259° (WSW) 21:25:33 145.935
Oscar 11 29 Apr 21:28:29 21:32:43 61° 259° (W) 21:37:01 .
AO-85 29 Apr 21:35:15 21:39:06 47° 241° (WSW) 21:43:06 145.980
BEESAT 3 29 Apr 21:41:12 21:45:01 40° 51° (NE) 21:48:48 437.485
STRAND 1 29 Apr 21:43:38 21:47:57 28° 294° (WNW) 21:52:15 437.568
BEESAT 2 29 Apr 21:48:14 21:51:26 22° 44° (NE) 21:54:35 435.950
NO-84 29 Apr 21:49:01 21:50:16 12° 346° (NNW) 21:51:29 435.350 FM
AAUSAT CUBESAT 2 29 Apr 21:54:09 21:56:00 13° 270° (W) 21:57:53 437.432
OBJECT BX 29 Apr 21:54:35 21:58:08 55° 74° (ENE) 22:01:42 145.990 - 145.960
PRISM 29 Apr 22:01:57 22:04:49 18° 93° (E) 22:07:40 437.425
HO-68 29 Apr 22:02:19 22:02:54 10° 275° (W) 22:03:31 435.675
UNISAT 6 29 Apr 22:03:01 22:04:51 12° 90° (E) 22:06:42 437.425
M-CUBED/EXP-1 PRIME 29 Apr 22:03:55 22:06:58 20° 301° (WNW) 22:09:52 437.505
DELFI C3 29 Apr 22:04:17 22:08:16 82° 256° (WSW) 22:12:18 145.870
UWE-3 29 Apr 22:04:24 22:05:47 11° 270° (W) 22:07:10 435.000/436.395/437.385
LO-87 29 Apr 22:47:11 22:50:24 31° 71° (ENE) 22:53:38 145.935 - 145.965
FO-29 29 Apr 22:59:04 23:04:01 39° 99° (E) 23:09:18 435.910
TIGRISAT 29 Apr 23:15:18 23:19:36 71° 102° (ESE) 23:23:57 435.000
BEESAT 3 29 Apr 23:19:24 23:22:20 20° 248° (WSW) 23:25:14 437.485
VELOX 1 29 Apr 23:23:36 23:26:14 16° 63° (ENE) 23:28:52 145.980
ESTCUBE 1 29 Apr 23:23:50 23:28:11 50° 72° (ENE) 23:32:35 437.505/2401.250
BEESAT 2 29 Apr 23:25:31 23:29:22 43° 242° (WSW) 23:33:11 435.950
NO-84 29 Apr 23:28:38 23:29:02 10° 9° (N) 23:29:26 435.350 FM
PRISM 29 Apr 23:36:24 23:40:15 38° 289° (WNW) 23:44:04 437.425
UNISAT 6 29 Apr 23:37:41 23:41:56 60° 286° (WNW) 23:46:13 437.425
SPROUT 29 Apr 23:58:01 00:01:44 30° 69° (ENE) 00:05:27 437.525
DUCHIFAT 1 30 Apr 00:01:50 00:04:04 14° 91° (E) 00:06:18 145.980
EO-79 30 Apr 00:03:32 00:06:28 18° 93° (E) 00:09:22 145.935-145.965
DX 1 30 Apr 00:03:48 00:06:27 16° 63° (ENE) 00:09:06 434.975-435.025
AIST 2D 30 Apr 00:19:57 00:23:26 55° 101° (E) 00:26:54 435.315
LO-87 30 Apr 00:21:30 00:23:55 17° 267° (W) 00:26:20 145.935 - 145.965
50 SAT 30 Apr 00:30:51 00:34:05 37° 72° (ENE) 00:37:21 437.505
POLYITAN 1 30 Apr 00:43:00 00:47:06 50° 100° (E) 00:51:11 437.675
FO-29 30 Apr 00:44:39 00:49:00 27° 294° (WNW) 00:53:35 435.910
BUGSAT 1 30 Apr 00:49:11 00:51:23 14° 92° (E) 00:53:34 437.445
QB50P2 30 Apr 00:49:46 00:53:58 65° 101° (ESE) 00:58:08 145.880/145.840
TIGRISAT 30 Apr 00:54:09 00:55:44 12° 298° (WNW) 00:57:18 435.000
UKube-1 30 Apr 00:57:48 01:01:49 38° 70° (ENE) 01:05:51 .
VELOX 1 30 Apr 00:57:50 01:02:13 57° 259° (W) 01:06:37 145.980
ESTCUBE 1 30 Apr 01:02:27 01:05:16 16° 269° (W) 01:08:07 437.505/2401.250
NO-84 30 Apr 01:04:46 01:07:26 28° 30° (NNE) 01:10:00 435.350 FM
NANOSAT C BR1 30 Apr 01:08:02 01:12:14 88° 104° (ESE) 01:16:26 145.865
PCSat 30 Apr 01:15:00 01:19:24 26° 108° (ESE) 01:23:50 145.827
SPROUT 30 Apr 01:34:08 01:37:38 24° 265° (W) 01:41:08 437.525
DUCHIFAT 1 30 Apr 01:35:59 01:40:02 50° 287° (WNW) 01:44:02 145.980
DX 1 30 Apr 01:37:54 01:42:12 54° 260° (W) 01:46:31 434.975-435.025
EO-79 30 Apr 01:38:28 01:42:22 39° 289° (WNW) 01:46:16 145.935-145.965
BEESAT 30 Apr 01:40:13 01:41:28 11° 58° (ENE) 01:42:44 436.000
AIST 2D 30 Apr 01:55:52 01:56:10 10° 296° (WNW) 01:56:28 435.315
50 SAT 30 Apr 02:05:31 02:07:10 13° 268° (W) 02:08:52 437.505
Oscar 19 30 Apr 02:19:37 02:24:40 47° 99° (E) 02:29:39 437.125/150
POLYITAN 1 30 Apr 02:19:59 02:22:29 16° 296° (WNW) 02:24:58 437.675
ITUPSAT 1 30 Apr 02:20:14 02:24:08 26° 66° (ENE) 02:28:03 437.325
BUGSAT 1 30 Apr 02:23:09 02:26:59 45° 288° (WNW) 02:30:49 437.445
QB50P2 30 Apr 02:27:28 02:29:13 12° 298° (WNW) 02:30:58 145.880/145.840
UKube-1 30 Apr 02:34:49 02:37:58 20° 266° (W) 02:41:08 .
MOZHAYETS 4 30 Apr 02:36:32 02:39:34 18° 64° (ENE) 02:42:37
NO-84 30 Apr 02:42:25 02:44:51 24° 229° (SW) 02:47:13 435.350 FM
Gurwin Techsat 1B 30 Apr 02:50:23 02:55:35 54° 100° (E) 03:00:46 435.225
PCSat 30 Apr 02:57:18 03:02:30 47° 306° (NW) 03:07:47 145.827
AO-7 30 Apr 02:58:32 03:01:47 13° 87° (E) 03:05:01 .
BEESAT 30 Apr 03:13:43 03:18:28 87° 78° (ENE) 03:23:15 436.000
CUBESAT XI-V 30 Apr 03:38:03 03:40:32 14° 61° (ENE) 03:43:02 437.345
YUBILEINY 30 Apr 03:38:57 03:46:28 35° 84° (E) 03:54:01 435.215
ITAMSAT 1 30 Apr 03:53:44 03:58:20 31° 96° (E) 04:02:55 435.822/435.867
ITUPSAT 1 30 Apr 03:57:27 04:01:48 35° 262° (W) 04:06:11 437.325
KKS-1 30 Apr 03:57:57 04:01:26 23° 66° (ENE) 04:04:56 437.445
Oscar 19 30 Apr 03:59:36 04:03:39 23° 297° (WNW) 04:07:42 437.125/150
MOZHAYETS 4 30 Apr 04:11:56 04:16:20 49° 261° (W) 04:20:47
STARS 30 Apr 04:19:49 04:22:41 17° 63° (ENE) 04:25:32 437.465
Gurwin Techsat 1B 30 Apr 04:31:11 04:35:07 22° 298° (WNW) 04:39:04 435.225
PCSat 30 Apr 04:45:53 04:47:19 11° 328° (NNW) 04:48:44 145.827
